Temperature
17 17 17 17 17 17 17 17 16 16 16 16 16 16 16 16 16 16 16 15 15 16 16 16 16 16 16 16 16 16 15 15 15 15 15 15 15 15 15 15 15 15 15
17 17 17 17 17 16 16 16 16 16 16 16 16 16 16 16 15 15 15 15 15 15 15 15 15 15 15 15 15 15 15 15 15 15 14 15 15 15 15 15 15 15 15
17 17 17 17 16 16 16 16 16 16 16 16 15 15 15 15 15 15 15 15 15 15 15 15 15 15 15 15 15 15 15 15 14 14 14 14 14 14 14 14 14 14 14
17 17 17 17 16 16 16 16 16 16 15 15 15 15 15 15 15 15 15 15 15 15 15 15 15 15 15 15 15 15 15 14 14 14 14 14 14 14 14 14 14 14 14
17 17 17 16 16 16 16 16 15 15 15 15 15 15 15 15 15 15 15 15 15 14 14 14 14 14 14 14 14 14 14 14 14 14 14 13 13 13 14 14 14 14 14
17 16 16 16 16 16 16 15 15 15 15 15 15 15 15 15 14 14 14 14 14 14 14 14 14 14 14 14 14 14 14 14 14 13 13 13 13 13 13 13 13 13 13
16 16 16 16 16 15 15 15 15 15 15 15 15 15 14 14 14 14 14 14 14 14 14 14 14 14 14 14 13 13 13 13 13 13 13 13 13 13 13 13 13 13 13
16 16 16 16 15 15 15 15 15 15 15 15 14 14 14 14 14 14 14 14 14 13 13 13 13 13 13 13 13 13 13 13 13 13 13 13 13 13 13 13 13 12 12
16 16 15 15 15 15 15 15 15 14 14 14 14 14 14 14 14 14 14 14 13 13 13 13 13 13 13 13 13 13 13 13 13 13 13 13 13 12 12 12 12 12 12
16 15 15 15 15 15 15 15 14 14 14 14 14 14 14 14 14 14 13 13 13 13 13 13 13 13 13 13 13 13 13 13 13 13 13 12 12 12 12 12 12 12 12
15 15 15 15 15 14 14 14 14 14 14 14 14 13 13 13 13 13 13 13 13 13 13 13 13 13 13 13 12 12 12 12 12 12 12 12 12 12 12 12 12 12 12
15 15 15 14 14 14 14 14 14 14 14 14 13 13 13 13 13 13 13 13 12 12 12 12 12 12 13 13 12 12 12 12 12 12 12 12 12 12 12 12 11 11 11
15 15 14 14 14 14 14 14 13 13 13 13 13 13 13 13 13 13 13 13 12 12 12 12 12 12 12 12 12 12 12 12 12 12 12 11 11 11 11 11 11 11 11
14 14 14 14 14 13 13 13 13 13 13 13 13 13 13 13 12 12 12 12 12 12 12 12 12 12 12 12 12 12 11 11 11 11 11 11 11 11 11 11 11 11 11
14 14 13 13 13 13 13 13 13 13 12 12 12 12 12 12 12 12 12 12 12 12 12 12 12 11 11 11 11 11 11 11 11 11 11 11 11 11 10 10 10 10 10
14 14 13 13 13 13 13 13 13 12 12 12 12 12 12 12 12 12 12 12 11 11 11 11 11 11 11 11 11 11 11 11 11 11 11 10 10 10 10 10 10 10 10
14 13 13 13 13 13 12 12 12 12 12 12 12 12 11 12 11 11 11 11 11 11 11 11 11 11 11 11 11 11 11 11 10 10 10 10 10 10 10 10 10 9 9
14 14 13 13 13 12 12 12 12 12 12 12 11 11 11 11 11 11 11 11 11 11 11 11 11 10 10 10 10 10 11 11 10 10 10 10 10 10 9 9 9 9 9
14 13 13 13 12 12 12 12 12 12 12 11 11 11 11 11 11 11 11 11 11 11 11 11 11 10 10 10 10 10 10 10 10 10 10 10 10 10 9 9 9 9 9
13 13 13 13 12 12 12 12 11 11 11 11 11 11 11 11 11 11 10 10 10 11 11 11 10 10 10 10 10 10 10 10 10 10 10 10 10 9 9 9 9 9 9
13 13 13 12 12 12 12 12 11 11 11 11 11 11 11 10 10 10 10 10 10 10 10 10 10 10 10 10 10 10 10 10 10 10 9 9 9 9 9 9 8 8 8
13 13 12 12 12 12 12 11 11 11 11 11 11 11 10 10 10 10 10 10 10 10 10 10 10 10 10 10 10 9 9 9 9 9 9 9 9 9 8 8 8 8 8
13 12 12 12 12 11 11 11 11 11 11 11 11 10 10 10 10 10 10 10 10 10 10 9 9 9 9 9 9 9 9 9 9 9 9 9 9 9 8 8 8 8 8
12 12 12 12 12 11 11 11 11 11 11 11 11 10 10 10 10 10 10 10 10 10 9 9 9 9 9 9 9 9 9 9 9 9 9 8 8 8 8 8 8 8 8
12 12 12 12 12 11 11 11 11 11 11 10 10 10 10 10 10 10 10 9 9 9 9 9 9 9 9 9 9 9 9 9 8 8 8 8 8 8 8 8 8 8 8
12 12 12 12 11 11 11 11 11 10 10 10 10 10 10 10 10 10 9 9 9 9 9 9 9 9 9 9 9 9 8 8 8 8 8 8 8 8 8 8 7 7 7
Wind_Speed
3 3 3 2 2 2 2 3 3 2 2 2 2 2 2 2 2 2 2 2 2 2 2 2 2 2 2 2 2 2 2 3 3 3 2 2 1 2 2 2 2 1 1
2 2 2 2 1 2 2 2 1 1 2 2 1 1 2 2 2 2 2 2 2 2 2 2 3 2 2 2 2 2 2 3 3 3 2 1 2 2 2 2 2 1 1
2 2 2 2 2 2 2 2 1 1 1 1 1 1 2 2 2 2 2 2 2 3 3 3 3 3 3 2 2 2 2 2 2 3 3 2 2 2 1 1 1 1 2
2 2 2 2 3 3 2 2 2 1 1 1 1 2 2 2 2 2 2 2 3 3 3 3 3 4 4 4 3 3 2 2 2 2 2 2 2 2 1 1 1 1 2
2 2 3 2 1 1 2 2 2 2 2 2 1 2 2 2 2 2 2 2 2 2 3 3 4 4 4 3 3 3 3 2 2 2 2 2 2 2 2 2 2 1 1
3 3 2 1 1 1 1 1 1 2 1 1 1 2 2 2 2 2 1 1 2 2 2 3 4 4 3 3 4 4 5 5 4 3 3 4 4 3 2 2 2 1 2
2 2 1 1 1 1 1 0 1 2 1 1 1 1 2 3 3 2 1 1 1 2 2 2 3 2 2 2 2 3 3 5 6 5 5 5 5 5 3 2 3 2 2
2 2 2 1 2 1 1 1 2 1 1 2 2 2 2 3 3 2 2 1 1 2 2 2 3 3 2 2 2 2 2 3 5 4 5 5 4 4 4 4 3 2 1
2 2 2 2 2 1 2 2 2 1 1 2 2 2 3 4 3 3 1 1 1 2 2 2 2 3 3 3 3 3 2 3 3 3 3 2 2 3 3 3 2 2 1
3 3 2 2 2 2 2 2 1 1 2 2 2 3 3 4 4 3 1 1 1 2 2 2 2 1 2 3 3 3 3 3 1 1 1 1 1 2 3 4 4 3 2
2 1 1 1 1 1 1 1 1 1 1 1 2 3 3 4 3 3 1 1 2 2 2 2 2 1 1 2 3 3 3 2 1 1 0 0 1 0 1 1 3 4 3
1 1 1 1 1 1 1 1 1 1 1 2 2 3 3 3 3 2 1 3 2 2 2 2 2 1 1 1 2 2 3 3 2 1 0 0 1 1 1 2 2 3 2
1 1 1 0 0 0 1 1 1 1 1 2 2 2 3 3 2 2 1 2 2 2 2 2 1 1 1 1 1 2 2 2 2 1 1 2 2 2 1 1 1 1 0
1 1 1 1 0 1 0 1 1 1 2 2 2 2 3 3 2 2 1 1 1 1 1 1 0 1 1 1 1 1 1 1 2 2 2 1 1 0 0 0 0 1 0
2 1 1 1 1 1 1 2 2 3 4 3 3 3 3 3 4 3 2 1 1 1 0 1 2 1 1 2 1 1 0 1 1 1 1 1 1 1 0 0 0 1 1
2 2 1 1 1 1 1 2 3 3 3 3 4 4 4 5 4 2 2 2 1 2 2 1 0 0 0 0 1 1 1 1 1 1 1 1 2 2 1 1 1 1 1
4 3 2 2 2 2 1 1 2 3 3 2 1 1 2 1 1 1 1 1 2 3 2 1 1 2 2 2 1 1 2 1 1 2 2 1 1 1 1 1 1 1 1
4 4 3 3 2 2 2 2 2 1 1 2 3 2 1 0 1 2 2 3 2 2 1 1 1 2 2 2 2 2 2 1 1 1 1 1 1 1 2 2 2 2 2
3 3 2 2 2 2 1 1 1 1 1 1 2 2 2 1 2 2 3 1 1 1 1 2 2 2 2 2 2 2 2 2 2 2 2 2 2 1 2 2 2 3 2
3 3 2 2 2 2 1 1 1 1 1 1 1 1 0 1 1 0 0 0 1 1 2 2 2 2 2 2 2 1 1 1 2 2 2 2 2 2 3 3 3 3 3
3 3 2 2 2 2 2 2 2 2 1 1 1 1 2 1 1 1 1 1 2 2 2 2 2 2 2 2 2 2 2 2 2 2 2 2 2 2 3 3 3 3 3
4 3 3 3 2 2 2 2 2 2 2 1 1 1 1 1 1 1 1 1 2 2 1 1 2 2 2 2 2 2 2 2 2 2 2 2 2 2 2 2 2 2 3
4 4 3 2 2 2 2 2 2 2 2 2 1 1 1 1 1 1 1 1 1 1 1 2 2 2 2 2 2 2 3 3 3 3 3 2 2 3 3 3 3 3 3
4 4 3 3 2 2 2 2 2 2 2 2 1 1 1 1 1 1 2 2 1 2 1 1 1 2 2 2 2 3 3 3 3 3 4 3 3 3 3 3 3 3 3
4 4 3 3 3 3 3 2 2 2 2 2 1 1 2 1 1 1 1 1 1 1 1 1 1 2 3 3 3 3 3 2 3 3 3 3 3 3 3 3 3 3 2
3 4 3 3 3 3 3 3 2 2 2 2 2 2 2 1 1 1 1 1 1 1 1 1 2 3 3 3 3 2 2 2 2 3 3 3 3 2 2 2 3 3 3
Wind_Direction
211 209 214 212 211 209 218 229 236 243 234 231 244 253 259 263 261 255 260 248 244 259 262 240 249 247 237 229 217 212 207 203 231 267 256 271 278 307 332 334 316 322 328
210 191 204 205 201 215 230 236 235 248 252 236 229 241 256 263 258 248 258 262 246 255 265 265 266 255 242 235 216 214 214 209 207 240 262 284 285 294 310 315 332 331 328
191 178 188 208 210 219 230 230 221 240 263 262 236 242 261 270 262 250 243 247 246 246 248 248 254 244 244 234 222 221 213 209 200 212 254 262 277 283 308 332 342 321 315
180 186 203 222 222 220 219 219 220 220 238 256 261 257 262 270 269 262 257 249 254 255 251 248 247 238 238 229 221 213 193 182 182 199 238 261 266 271 251 271 310 320 307
178 203 228 236 226 216 210 216 224 226 237 235 249 271 275 268 272 280 266 254 264 278 275 263 252 244 238 226 221 202 183 184 190 200 223 238 254 251 254 247 251 287 315
180 212 232 227 205 229 232 227 235 245 249 234 246 260 274 279 300 296 275 259 259 265 281 285 272 256 241 221 213 201 188 189 197 203 221 228 238 239 246 241 225 239 267
177 193 201 208 222 252 260 288 270 265 260 258 255 252 268 289 306 310 298 221 241 259 266 281 282 270 243 219 215 216 217 214 208 206 212 229 230 227 218 222 214 221 245
181 205 208 209 234 250 267 258 263 286 271 253 258 250 257 278 294 303 308 237 253 268 269 265 263 263 237 198 201 210 226 233 229 222 223 231 231 229 215 207 209 213 269
203 219 220 213 227 242 262 275 261 256 280 280 271 257 259 280 289 293 318 257 274 284 282 282 265 245 236 197 191 206 241 265 246 222 221 220 214 200 185 165 173 184 254
224 232 229 214 217 238 254 269 262 241 255 268 283 271 261 271 287 290 279 220 251 274 291 294 278 231 226 195 194 197 222 253 232 148 76 51 113 157 167 186 189 191 205
220 200 225 228 215 225 245 269 277 264 270 272 280 288 283 277 286 293 259 198 222 233 256 285 286 259 222 203 192 203 213 192 154 148 147 68 40 74 217 208 200 196 202
177 171 203 227 235 238 234 276 259 223 248 274 291 307 304 299 288 295 261 211 205 208 233 256 273 263 233 196 192 191 168 142 133 132 134 279 271 274 269 239 213 213 222
160 196 209 112 33 38 158 295 318 294 259 272 276 286 298 304 303 300 272 208 204 209 237 235 245 240 210 155 143 140 140 137 140 158 209 245 254 253 266 240 194 178 153
177 185 153 133 72 10 353 246 258 272 270 272 270 275 287 296 299 307 299 261 230 227 269 284 136 117 110 99 71 76 117 150 169 200 227 239 239 207 193 198 216 186 176
178 171 178 184 198 291 300 261 243 245 228 225 238 238 244 269 272 251 219 232 232 230 190 80 66 62 59 45 33 23 90 128 176 216 220 225 200 200 258 211 143 137 151
190 196 202 216 224 245 283 322 317 281 261 238 230 229 244 249 266 256 227 198 161 128 118 107 89 266 247 246 270 296 285 236 227 213 214 216 210 215 224 201 171 173 195
197 206 212 217 216 231 241 265 312 339 353 359 310 254 220 235 216 188 166 142 127 123 123 156 200 242 255 252 246 244 256 258 227 212 216 225 236 233 222 219 208 208 225
205 209 210 216 220 227 238 253 256 262 310 338 333 314 310 278 174 150 138 111 84 107 178 205 229 247 251 250 246 242 253 257 234 220 217 221 221 223 229 233 224 223 228
204 211 214 215 217 227 232 240 254 258 259 294 327 328 337 38 91 107 123 127 170 218 237 237 238 248 259 255 251 240 239 238 232 223 222 230 227 222 230 240 241 233 235
211 216 200 196 203 207 217 224 228 235 251 258 271 280 309 66 60 49 154 192 208 240 250 253 253 254 256 258 253 237 232 236 230 230 232 233 232 229 233 241 241 238 237
200 204 198 189 203 207 212 221 223 225 237 252 263 248 190 183 208 218 225 230 237 245 249 253 260 265 261 256 246 229 225 236 237 232 232 234 229 232 241 241 239 238 237
189 191 200 208 207 208 217 221 219 223 230 243 285 291 179 172 214 235 250 258 256 252 247 241 253 260 260 245 237 238 236 238 238 234 232 234 230 228 229 231 231 231 232
183 186 195 200 198 200 209 220 216 222 230 226 237 257 224 242 264 268 272 276 266 254 243 229 241 265 272 260 246 234 237 242 240 230 225 229 231 224 219 223 226 233 235
182 187 197 201 199 205 214 227 225 227 231 223 219 223 230 230 242 268 278 279 264 254 247 237 245 258 269 275 271 258 249 246 234 225 223 221 225 225 224 228 228 227 228
186 189 197 205 211 217 215 220 227 230 230 219 218 230 240 237 248 268 278 272 268 269 272 270 269 267 266 269 274 276 276 253 228 214 208 210 216 222 224 231 230 223 224
191 189 194 199 205 213 214 216 223 226 219 213 211 213 221 232 251 263 277 286 297 305 305 297 292 285 286 281 283 287 277 262 242 215 202 204 207 216 220 224 230 229 227
Height
1505 1505 1506 1506 1507 1507 1508 1508 1508 1509 1509 1508 1508 1508 1508 1508 1507 1507 1506 1506 1506 1506 1506 1506 1506 1506 1506 1506 1507 1507 1507 1508 1507 1507 1508 1509 1509 1508 1508 1508 1509 1509 1509
1502 1503 1503 1504 1504 1505 1505 1505 1506 1506 1506 1506 1506 1505 1505 1505 1504 1504 1503 1503 1503 1503 1503 1503 1503 1503 1503 1503 1503 1504 1504 1504 1505 1504 1504 1505 1506 1506 1506 1506 1506 1506 1507
1500 1500 1501 1501 1502 1502 1502 1503 1503 1503 1503 1503 1503 1503 1503 1502 1502 1501 1501 1500 1500 1500 1499 1499 1499 1499 1499 1499 1500 1500 1501 1501 1502 1501 1501 1502 1503 1503 1503 1503 1504 1504 1504
1498 1498 1499 1499 1499 1499 1500 1500 1500 1500 1500 1500 1500 1500 1500 1499 1499 1498 1498 1497 1497 1497 1496 1496 1496 1496 1496 1496 1496 1497 1497 1498 1498 1499 1499 1500 1500 1501 1501 1501 1501 1501 1502
1497 1497 1497 1497 1497 1497 1497 1497 1497 1497 1497 1497 1497 1497 1497 1496 1496 1495 1495 1494 1494 1493 1493 1493 1493 1493 1493 1493 1493 1494 1494 1495 1495 1496 1496 1497 1497 1498 1498 1498 1498 1498 1499
1494 1495 1495 1495 1495 1495 1495 1495 1495 1495 1495 1494 1494 1494 1493 1493 1493 1493 1492 1492 1491 1490 1490 1489 1489 1489 1490 1490 1490 1491 1491 1492 1492 1493 1493 1493 1494 1494 1495 1495 1495 1496 1496
1492 1492 1492 1492 1492 1492 1493 1492 1492 1492 1492 1492 1491 1491 1491 1490 1490 1490 1489 1489 1488 1487 1487 1487 1486 1486 1486 1487 1487 1488 1489 1489 1490 1491 1491 1491 1491 1492 1493 1493 1493 1493 1493
1489 1489 1490 1490 1490 1490 1490 1490 1490 1490 1490 1490 1489 1489 1488 1488 1488 1487 1487 1486 1485 1485 1484 1484 1483 1483 1483 1484 1484 1485 1486 1486 1487 1488 1488 1489 1489 1490 1490 1491 1491 1491 1491
1487 1487 1488 1488 1488 1488 1488 1488 1488 1487 1487 1487 1487 1486 1485 1485 1485 1484 1484 1483 1482 1482 1481 1481 1480 1480 1480 1481 1481 1482 1483 1483 1484 1485 1486 1486 1487 1487 1487 1488 1488 1488 1488
1485 1485 1486 1486 1486 1486 1486 1486 1486 1485 1485 1485 1484 1484 1483 1482 1482 1482 1481 1480 1479 1479 1478 1478 1477 1477 1478 1478 1478 1479 1479 1480 1481 1482 1483 1483 1483 1484 1484 1485 1485 1485 1485
1483 1484 1484 1484 1484 1484 1484 1484 1483 1483 1482 1482 1482 1481 1480 1480 1479 1479 1478 1477 1477 1476 1476 1475 1475 1475 1475 1476 1476 1476 1477 1478 1479 1479 1480 1480 1480 1480 1481 1481 1482 1483 1483
1482 1481 1482 1482 1482 1482 1482 1481 1481 1480 1479 1478 1478 1478 1477 1477 1476 1476 1476 1475 1475 1474 1474 1474 1473 1473 1473 1473 1474 1474 1475 1476 1476 1476 1477 1477 1477 1477 1478 1478 1479 1479 1480
1480 1479 1479 1479 1480 1480 1479 1479 1478 1477 1476 1475 1474 1474 1474 1474 1474 1474 1473 1473 1473 1472 1472 1472 1472 1472 1472 1472 1472 1472 1473 1473 1473 1474 1474 1475 1475 1475 1475 1475 1476 1476 1477
1478 1478 1478 1478 1478 1477 1477 1476 1475 1474 1473 1472 1471 1471 1471 1471 1471 1471 1471 1471 1470 1470 1470 1470 1470 1470 1470 1470 1470 1470 1471 1471 1471 1472 1472 1472 1473 1472 1472 1472 1473 1473 1474
1477 1477 1477 1476 1476 1475 1474 1474 1472 1472 1471 1470 1469 1469 1468 1468 1468 1469 1469 1468 1468 1468 1468 1468 1468 1467 1467 1467 1468 1469 1469 1469 1469 1469 1469 1470 1470 1470 1470 1470 1470 1471 1471
1475 1475 1475 1474 1474 1473 1472 1472 1470 1469 1468 1467 1467 1467 1467 1467 1466 1466 1467 1466 1466 1466 1466 1465 1466 1465 1465 1465 1466 1467 1467 1467 1467 1467 1467 1467 1467 1467 1468 1468 1468 1468 1469
1472 1473 1473 1472 1472 1471 1470 1469 1467 1467 1467 1466 1466 1465 1465 1465 1465 1465 1465 1464 1464 1464 1464 1463 1463 1464 1464 1464 1465 1465 1465 1465 1465 1465 1465 1465 1465 1465 1465 1465 1465 1466 1466
1470 1470 1470 1470 1469 1469 1468 1467 1465 1464 1464 1463 1464 1464 1464 1463 1463 1463 1463 1463 1462 1462 1462 1462 1462 1462 1463 1463 1463 1463 1463 1463 1463 1463 1463 1463 1463 1463 1463 1463 1463 1463 1464
1468 1468 1468 1468 1467 1467 1466 1465 1464 1463 1462 1462 1461 1461 1462 1462 1461 1461 1461 1461 1460 1460 1460 1460 1461 1461 1461 1461 1461 1461 1461 1461 1461 1461 1460 1461 1461 1461 1461 1461 1461 1462 1462
1465 1466 1466 1465 1465 1465 1464 1463 1462 1462 1461 1460 1459 1459 1459 1459 1459 1459 1459 1459 1459 1459 1459 1459 1459 1459 1459 1459 1459 1459 1459 1459 1458 1458 1458 1458 1458 1459 1459 1459 1459 1459 1459
1463 1463 1463 1463 1463 1462 1462 1462 1461 1461 1460 1459 1458 1458 1458 1458 1457 1457 1457 1457 1457 1457 1457 1457 1457 1457 1457 1457 1457 1457 1457 1456 1456 1456 1456 1456 1456 1456 1456 1457 1457 1457 1457
1460 1460 1460 1460 1460 1460 1460 1460 1459 1459 1458 1458 1457 1457 1457 1457 1456 1456 1456 1456 1456 1456 1456 1456 1455 1455 1455 1455 1455 1455 1454 1454 1454 1454 1454 1454 1454 1453 1453 1454 1454 1454 1454
1457 1457 1457 1458 1458 1458 1458 1458 1457 1457 1457 1457 1456 1456 1456 1455 1455 1455 1455 1455 1454 1454 1454 1454 1453 1453 1453 1453 1453 1453 1452 1452 1452 1451 1451 1451 1451 1451 1451 1451 1451 1451 1451
1454 1454 1455 1455 1456 1456 1455 1455 1455 1455 1455 1455 1454 1455 1454 1454 1454 1454 1454 1453 1453 1452 1452 1452 1451 1451 1451 1451 1451 1451 1450 1450 1450 1449 1449 1449 1449 1448 1448 1448 1448 1448 1448
1451 1452 1452 1452 1453 1453 1453 1453 1452 1452 1453 1453 1453 1453 1453 1453 1452 1452 1452 1452 1451 1451 1450 1450 1449 1449 1449 1449 1449 1449 1448 1448 1448 1447 1447 1447 1446 1446 1445 1445 1445 1445 1445
1448 1449 1449 1450 1450 1450 1450 1450 1450 1450 1450 1450 1451 1451 1451 1451 1450 1450 1450 1449 1449 1448 1448 1447 1447 1447 1447 1447 1447 1446 1446 1446 1446 1445 1444 1444 1444 1443 1443 1443 1443 1443 1443